Location: Boiro
(42.6475°N, 8.8834°W)
Time: 08:28:43
(UTC+02:00)

FALCONSAT-6 - Pass Details

Date: 07 July 2022
Orbit: 555 x 585 km, 97.6° (Epoch: 10 August)

Event Time Altitude Azimuth Distance (km) Brightness Sun altitude
Exits shadow 00:23:25 29° 186° (S) 1,076 ? -17.5°
Maximum altitude 00:25:23 64° 259° (W) 649 ? -17.7°
Drops below altitude 10° 00:29:30 10° 341° (NNW) 1,907 ? -18.1°
Sets 00:31:40 0° 345° (NNW) 2,808 ? -18.3°
